Soldotna, AK

2:34 PM AKST on February 24, 2017 (GMT -0900)
Soldotna

Weather History for PASX - January, 2014

Change the Weather History Date:

Thursday, January 30, 2014

  Actual Average Record
Temperature  
Mean Temperature 25 °F -  
Max Temperature 33 °F 23 °F 48 °F (2007)
Min Temperature 17 °F 5 °F -28 °F (1971)
Degree Days  
Heating Degree Days 40    
Moisture  
Dew Point 21 °F    
Average Humidity 81    
Maximum Humidity 93    
Minimum Humidity 60    
Precipitation  
Precipitation 0.00 in - - ()
Sea Level Pressure  
Sea Level Pressure 30.20 in    
Wind  
Wind Speed 3 mph (East)    
Max Wind Speed 6 mph    
Max Gust Speed -    
Visibility 10 miles    
Events      
Averages and records for this station are not official NWS values.
T = Trace of Precipitation, MM = Missing Value Source: NWS Daily Summary

Daily Weather History Graph

Daily Weather History Graph

Search for Another Location

Airport or City:

Trip Planner

Search our weather history database for the weather conditions in past years. The results will help you decide how hot, cold, wet, or windy it might be!

Date:

Astronomy

Jan. 30, 2014 Rise Set
Actual Time 9:24 AM AKST 5:11 PM AKST
Civil Twilight 8:35 AM AKST 5:59 PM AKST
Nautical Twilight 7:44 AM AKST 6:51 PM AKST
Astronomical Twilight 6:54 AM AKST 7:41 PM AKST
Moon 8:43 AM AKST (1/30) 5:55 PM AKST (1/30)
Length of Visible Light 9h 24m
Length of Day
7h 46m
Waning Crescent, 0% of the Moon is Illuminated
Jan 30
Waning Crescent
Jan 30
New
Feb 6
First Quarter
Feb 14
Full
Feb 22
Last Quarter

Hourly Weather History & Observations

Time (AKST) Temp. Windchill Dew Point Humidity Pressure Visibility Wind Dir Wind Speed Gust Speed Precip Events Conditions
12:16 AM 30.2 °F - 26.6 °F 86% 30.14 in 10.0 mi Calm Calm - N/A   Overcast
12:36 AM 30.2 °F 26.7 °F 26.6 °F 86% 30.14 in 10.0 mi East 3.5 mph - N/A   Overcast
12:56 AM 30.2 °F 26.7 °F 24.8 °F 80% 30.15 in 10.0 mi East 3.5 mph - N/A   Overcast
1:16 AM 30.2 °F 26.7 °F 24.8 °F 80% 30.15 in 10.0 mi ESE 3.5 mph - N/A   Overcast
1:36 AM 28.4 °F 23.3 °F 24.8 °F 86% 30.15 in 10.0 mi ESE 4.6 mph - N/A   Partly Cloudy
1:56 AM 28.4 °F 22.2 °F 24.8 °F 86% 30.16 in 10.0 mi SE 5.8 mph - N/A   Partly Cloudy
2:16 AM 28.4 °F 23.3 °F 24.8 °F 86% 30.17 in 10.0 mi East 4.6 mph - N/A   Mostly Cloudy
2:36 AM 28.4 °F 22.2 °F 24.8 °F 86% 30.17 in 10.0 mi East 5.8 mph - N/A   Overcast
2:56 AM 28.4 °F 22.2 °F 24.8 °F 86% 30.17 in 10.0 mi East 5.8 mph - N/A   Overcast
3:16 AM 28.4 °F 22.2 °F 24.8 °F 86% 30.17 in 10.0 mi East 5.8 mph - N/A   Overcast
3:36 AM 28.4 °F 23.3 °F 23.0 °F 80% 30.17 in 10.0 mi ESE 4.6 mph - N/A   Overcast
3:56 AM 28.4 °F 23.3 °F 24.8 °F 86% 30.18 in 10.0 mi SE 4.6 mph - N/A   Overcast
4:16 AM 28.4 °F 23.3 °F 24.8 °F 86% 30.18 in 10.0 mi East 4.6 mph - N/A   Overcast
4:36 AM 28.4 °F 24.6 °F 24.8 °F 86% 30.18 in 10.0 mi East 3.5 mph - N/A   Overcast
4:56 AM 28.4 °F 24.6 °F 24.8 °F 86% 30.18 in 10.0 mi SSE 3.5 mph - N/A   Overcast
5:16 AM 28.4 °F 23.3 °F 24.8 °F 86% 30.18 in 10.0 mi ESE 4.6 mph - N/A   Mostly Cloudy
5:36 AM 26.6 °F 21.2 °F 23.0 °F 86% 30.19 in 10.0 mi East 4.6 mph - N/A   Mostly Cloudy
5:56 AM 26.6 °F 21.2 °F 23.0 °F 86% 30.19 in 10.0 mi East 4.6 mph - N/A   Overcast
6:16 AM 26.6 °F 21.2 °F 24.8 °F 93% 30.19 in 10.0 mi East 4.6 mph - N/A   Overcast
6:36 AM 26.6 °F 21.2 °F 23.0 °F 86% 30.19 in 10.0 mi East 4.6 mph - N/A   Overcast
6:56 AM 26.6 °F 21.2 °F 24.8 °F 93% 30.19 in 10.0 mi East 4.6 mph - N/A   Overcast
7:16 AM 26.6 °F 21.2 °F 21.2 °F 80% 30.19 in 10.0 mi ESE 4.6 mph - N/A   Scattered Clouds
7:36 AM 26.6 °F 21.2 °F 21.2 °F 80% 30.19 in 10.0 mi ESE 4.6 mph - N/A   Clear
7:56 AM 24.8 °F 19.1 °F 21.2 °F 86% 30.20 in 10.0 mi East 4.6 mph - N/A   Clear
8:16 AM 24.8 °F 20.5 °F 21.2 °F 86% 30.20 in 10.0 mi East 3.5 mph - N/A   Clear
8:36 AM 24.8 °F 17.9 °F 21.2 °F 86% 30.20 in 10.0 mi East 5.8 mph - N/A   Clear
8:56 AM 24.8 °F 20.5 °F 21.2 °F 86% 30.21 in 10.0 mi East 3.5 mph - N/A   Clear
9:16 AM 24.8 °F 19.1 °F 21.2 °F 86% 30.21 in 10.0 mi East 4.6 mph - N/A   Clear
9:36 AM 24.8 °F - 21.2 °F 86% 30.21 in 10.0 mi Calm Calm - N/A   Clear
9:56 AM 23.0 °F - 19.4 °F 86% 30.21 in 10.0 mi Calm Calm - N/A   Clear
10:16 AM 23.0 °F - 19.4 °F 86% 30.22 in 10.0 mi Calm Calm - N/A   Clear
10:36 AM 23.0 °F 17.0 °F 19.4 °F 86% 30.22 in 10.0 mi East 4.6 mph - N/A   Clear
10:56 AM 24.8 °F 19.1 °F 19.4 °F 80% 30.22 in 10.0 mi East 4.6 mph - N/A   Clear
11:16 AM 24.8 °F 20.5 °F 21.2 °F 86% 30.22 in 10.0 mi ESE 3.5 mph - N/A   Clear
11:36 AM 24.8 °F - 21.2 °F 86% 30.23 in 10.0 mi Calm Calm - N/A   Clear
11:56 AM 26.6 °F 21.2 °F 21.2 °F 80% 30.22 in 10.0 mi East 4.6 mph - N/A   Clear
12:16 PM 26.6 °F 21.2 °F 21.2 °F 80% 30.22 in 10.0 mi ESE 4.6 mph - N/A   Clear
12:36 PM 28.4 °F 22.2 °F 23.0 °F 80% 30.21 in 10.0 mi ESE 5.8 mph - N/A   Clear
12:56 PM 28.4 °F 23.3 °F 23.0 °F 80% 30.21 in 10.0 mi ESE 4.6 mph - N/A   Clear
1:16 PM 28.4 °F 24.6 °F 21.2 °F 74% 30.21 in 10.0 mi SE 3.5 mph - N/A   Clear
1:36 PM 28.4 °F - 23.0 °F 80% 30.21 in 10.0 mi Calm Calm - N/A   Clear
1:56 PM 30.2 °F - 23.0 °F 75% 30.21 in 10.0 mi Calm Calm - N/A   Clear
2:16 PM 30.2 °F - 23.0 °F 75% 30.21 in 10.0 mi Calm Calm - N/A   Clear
2:36 PM 32.0 °F - 23.0 °F 69% 30.21 in 10.0 mi Calm Calm - N/A   Clear
2:56 PM 30.2 °F - 23.0 °F 75% 30.21 in 10.0 mi Calm Calm - N/A   Clear
3:16 PM 33.8 °F - 23.0 °F 65% 30.21 in 10.0 mi Calm Calm - N/A   Clear
3:36 PM 33.8 °F 28.6 °F 21.2 °F 60% 30.20 in 10.0 mi NE 5.8 mph - N/A   Clear
3:56 PM 33.8 °F 29.6 °F 21.2 °F 60% 30.20 in 10.0 mi NNE 4.6 mph - N/A   Clear
4:16 PM 32.0 °F 28.7 °F 19.4 °F 60% 30.20 in 10.0 mi NNE 3.5 mph - N/A   Clear
4:36 PM 32.0 °F 28.7 °F 19.4 °F 60% 30.20 in 10.0 mi NNE 3.5 mph - N/A   Clear
4:56 PM 30.2 °F 26.7 °F 19.4 °F 64% 30.21 in 10.0 mi NE 3.5 mph - N/A   Clear
5:16 PM 28.4 °F 24.6 °F 19.4 °F 69% 30.21 in 10.0 mi NE 3.5 mph - N/A   Clear
5:36 PM 26.6 °F - 19.4 °F 74% 30.21 in 10.0 mi Calm Calm - N/A   Clear
5:56 PM 24.8 °F - 17.6 °F 74% 30.21 in 10.0 mi Calm Calm - N/A   Clear
6:16 PM 26.6 °F - 19.4 °F 74% 30.21 in 10.0 mi Calm Calm - N/A   Clear
6:36 PM 24.8 °F - 17.6 °F 74% 30.21 in 10.0 mi Calm Calm - N/A   Clear
6:56 PM 24.8 °F - 19.4 °F 80% 30.21 in 10.0 mi Calm Calm - N/A   Clear
7:16 PM 24.8 °F 20.5 °F 17.6 °F 74% 30.20 in 10.0 mi East 3.5 mph - N/A   Clear
7:36 PM 21.2 °F - 15.8 °F 80% 30.21 in 10.0 mi Calm Calm - N/A   Clear
7:56 PM 21.2 °F - 17.6 °F 86% 30.20 in 10.0 mi Calm Calm - N/A   Clear
8:16 PM 21.2 °F - 15.8 °F 80% 30.20 in 10.0 mi Calm Calm - N/A   Clear
8:36 PM 19.4 °F - 15.8 °F 86% 30.20 in 10.0 mi Calm Calm - N/A   Clear
8:56 PM 21.2 °F - 17.6 °F 86% 30.20 in 10.0 mi Calm Calm - N/A   Clear
9:16 PM 19.4 °F 14.3 °F 15.8 °F 86% 30.20 in 10.0 mi ENE 3.5 mph - N/A   Clear
9:36 PM 19.4 °F - 15.8 °F 86% 30.20 in 10.0 mi Calm Calm - N/A   Clear
9:56 PM 19.4 °F - 15.8 °F 86% 30.20 in 10.0 mi Calm Calm - N/A   Clear
10:16 PM 19.4 °F - 14.0 °F 80% 30.21 in 10.0 mi Calm Calm - N/A   Clear
10:36 PM 19.4 °F - 15.8 °F 86% 30.21 in 10.0 mi Calm Calm - N/A   Clear
10:56 PM 17.6 °F - 15.8 °F 93% 30.21 in 10.0 mi Calm Calm - N/A   Clear
11:16 PM 17.6 °F - 12.2 °F 79% 30.21 in 10.0 mi Calm Calm - N/A   Clear
11:36 PM 17.6 °F - 12.2 °F 79% 30.21 in 10.0 mi Calm Calm - N/A   Clear
11:56 PM 17.6 °F 12.3 °F 14.0 °F 86% 30.21 in 10.0 mi ENE 3.5 mph - N/A   Clear